Probability
0 0 0 0 0 0 0 0 0 0 0 0 0 0 0 0 0 0 0 0 0 0 0 0 0 0 0 0 0 0 0 0 0 0 0 0 0 0
0 0 0 0 0 0 0 0 0 0 0 0 0 0 0 0 0 0 0 0 0 0 0 0 0 0 0 0 0 0 0 0 0 0 0 0 0 0
0 0 0 0 0 0 0 0 0 0 0 0 0 0 0 0 0 0 0 0 0 0 0 0 0 0 0 0 0 0 0 0 0 0 0 0 0 0
0 0 0 0 0 0 0 0 0 0 0 0 0 0 0 0 0 0 0 0 0 0 0 0 0 0 0 0 0 0 0 0 0 0 0 0 0 0
0 0 0 0 0 0 0 0 0 0 0 0 0 0 0 0 0 0 0 0 0 0 0 0 0 0 0 0 0 0 0 0 0 0 0 0 0 0
0 0 0 0 0 0 0 0 0 0 0 0 0 0 0 0 0 0 0 0 0 0 0 0 0 0 0 0 0 0 0 0 0 0 0 0 0 0
0 0 0 0 0 0 0 0 0 0 0 0 0 0 0 0 0 0 0 0 0 0 0 0 0 0 0 0 0 0 0 0 0 0 0 0 0 0
0 0 0 0 0 0 0 0 0 0 0 0 0 0 0 0 0 0 0 0 0 0 0 0 0 0 0 0 0 0 0 0 0 0 0 0 0 0
0 0 0 0 0 0 0 0 0 0 0 0 0 0 0 0 0 0 0 0 0 0 0 0 0 0 0 0 0 0 0 0 0 0 0 0 0 0
0 0 0 0 0 0 0 0 0 0 0 0 0 0 0 0 0 0 0 0 0 0 0 0 0 0 0 0 0 0 0 0 0 0 0 0 0 0
0 0 0 0 0 0 0 0 0 0 0 0 0 0 0 0 0 0 0 0 0 0 0 0 0 0 0 0 0 0 0 0 0 0 0 0 0 0
0 0 0 0 0 0 0 0 0 0 0 0 0 0 0 0 0 0 0 0 0 0 0 0 0 0 0 0 0 0 0 0 0 0 0 0 0 0
0 0 0 0 0 0 0 0 0 0 0 0 0 0 0 0 0 0 0 0 0 0 0 0 0 0 0 0 0 0 0 0 0 0 0 0 0 0
0 0 0 0 0 0 0 0 0 0 0 0 0 0 0 0 0 0 0 0 0 0 0 0 0 0 0 0 0 0 0 0 0 0 0 0 0 0
0 0 0 0 0 0 0 0 0 0 0 0 0 0 0 0 0 0 0 0 0 0 0 0 0 0 0 0 0 0 0 0 0 0 0 0 0 0
0 0 0 0 0 0 0 0 0 0 0 0 0 0 0 0 0 0 0 0 0 0 0 0 0 0 0 0 0 0 0 0 0 0 0 0 0 0
0 0 0 0 0 0 0 0 0 0 0 0 0 0 0 0 0 0 0 0 0 0 0 0 0 0 0 0 0 0 0 0 0 0 0 0 0 0
0 0 0 0 0 0 0 0 0 0 0 0 0 0 0 0 0 0 0 0 0 0 0 0 0 0 0 0 0 0 0 0 0 0 0 0 0 0
0 0 0 0 0 0 0 0 0 0 0 0 0 0 0 0 0 0 0 0 0 0 0 0 0 0 0 0 0 0 0 0 0 0 0 0 0 0
0 0 0 0 0 0 0 0 0 0 0 0 0 0 0 0 0 0 0 0 0 0 0 0 0 0 0 0 0 0 0 0 0 0 0 0 0 0
0 0 0 0 0 0 0 0 0 0 0 0 0 0 0 0 0 0 0 0 0 0 0 0 0 0 0 0 0 0 0 0 0 0 0 0 0 0
0 0 0 0 0 0 0 0 0 0 0 0 0 0 0 0 0 0 0 0 0 0 0 0 0 0 0 0 0 0 0 0 0 0 0 0 0 0
0 0 0 0 0 0 0 0 0 0 0 0 0 0 0 0 0 0 0 0 0 0 0 0 0 0 0 0 0 0 0 0 0 0 0 0 0 0
Wind_Speed
4 5 5 4 4 4 4 4 5 8 9 6 4 4 4 5 10 8 7 14 17 18 17 17 17 17 16 17 18 19 19 19 19 18 19 20 21 21
4 5 5 5 4 4 4 4 5 6 9 6 5 6 6 7 11 8 8 16 16 17 17 17 17 16 16 17 18 18 18 18 18 18 18 18 19 19
5 5 6 6 5 4 4 4 5 5 8 8 5 6 6 8 9 7 7 7 8 15 16 16 16 15 15 15 16 16 15 15 16 16 17 17 17 17
6 6 7 6 6 5 4 5 5 5 6 10 8 6 7 8 8 8 8 7 6 12 14 14 14 14 14 15 15 14 14 14 14 13 14 14 14 14
6 7 7 7 7 6 6 5 5 5 5 7 8 6 6 6 7 8 8 6 6 9 11 12 12 13 14 14 14 13 13 12 12 11 11 12 11 10
6 7 7 7 8 8 6 6 5 6 5 6 7 6 6 6 5 6 7 5 6 6 8 9 11 12 13 14 14 13 11 10 10 10 10 9 9 9
6 6 7 9 11 9 7 6 5 5 5 6 6 6 6 6 5 5 7 6 6 4 5 5 6 5 7 10 11 11 10 10 9 10 9 8 7 8
7 7 7 8 10 13 13 12 9 7 6 6 6 7 8 7 6 6 5 6 6 3 4 6 4 5 5 5 9 10 9 10 9 7 8 8 8 8
6 6 7 8 10 7 10 12 10 11 10 7 7 8 8 7 7 7 6 5 6 4 4 5 4 5 5 6 10 9 9 9 8 8 9 9 9 9
6 6 7 8 7 8 7 7 6 6 7 6 6 7 7 7 6 6 6 6 5 3 2 4 5 4 5 4 8 9 9 9 9 9 10 10 10 9
6 6 7 7 11 12 7 6 6 6 7 8 9 10 11 11 8 4 4 3 4 4 2 2 3 4 3 3 5 9 10 10 10 10 10 10 10 9
5 5 8 9 11 11 6 5 6 6 6 6 7 8 7 7 8 4 3 3 3 3 2 2 2 3 3 3 3 4 5 8 10 10 10 10 10 6
4 4 5 10 11 10 8 5 7 7 4 4 4 5 5 4 4 3 3 3 2 3 2 2 2 2 1 3 3 3 3 3 4 5 8 10 10 7
4 4 5 9 10 10 7 7 9 7 3 3 3 4 4 4 4 4 3 2 2 2 2 1 1 1 1 1 2 3 3 3 3 4 4 7 8 9
4 7 8 9 9 6 7 9 7 3 3 3 3 4 3 3 3 3 3 3 3 3 2 1 0 1 1 1 1 2 2 3 3 4 4 4 4 4
4 6 8 7 6 6 6 5 3 2 3 3 3 3 3 3 3 2 2 3 3 4 5 4 3 2 2 1 1 2 2 2 3 4 3 3 4 4
4 3 3 3 3 3 3 3 3 3 3 2 2 3 3 3 3 3 2 2 2 2 3 4 4 3 3 2 2 2 2 3 3 4 4 4 4 4
4 3 3 3 3 3 4 4 3 3 3 3 2 2 2 2 3 2 2 2 2 2 2 2 3 3 3 4 4 2 2 2 3 4 3 3 4 4
3 2 3 3 3 3 3 3 3 3 3 2 2 2 2 2 2 2 2 2 2 2 2 2 2 3 3 3 4 5 3 3 3 3 3 3 3 4
2 2 3 3 3 3 3 3 3 3 2 2 2 2 2 1 1 1 1 2 2 2 3 3 3 3 2 1 1 4 6 3 2 3 3 3 2 4
3 3 3 3 3 3 3 3 3 2 2 2 2 2 1 1 1 1 1 2 2 2 3 3 3 3 1 2 2 3 4 5 4 2 2 3 3 4
3 3 3 3 3 3 3 2 2 2 2 2 2 1 1 1 1 1 1 2 2 2 2 2 3 3 3 3 3 2 3 5 6 7 5 3 1 2
3 3 3 3 3 3 3 2 2 2 2 2 1 1 1 1 0 1 1 2 2 3 3 2 3 3 3 2 2 2 4 4 4 5 5 8 7 6
Wind_Direction
275 279 278 276 271 265 258 256 274 293 294 288 288 281 287 288 292 291 289 297 302 303 306 305 303 301 300 301 299 296 295 295 291 286 283 283 282 282
282 286 286 282 281 272 262 262 258 268 283 287 286 292 295 299 300 299 290 299 301 303 305 307 306 303 304 304 303 300 295 295 293 289 286 286 286 284
295 291 288 290 284 279 275 269 268 266 279 290 286 293 292 295 301 298 289 286 291 299 304 306 307 309 310 311 312 310 308 306 301 293 290 291 293 290
291 289 288 293 291 283 275 272 272 267 272 289 296 297 293 293 294 297 300 299 293 301 307 309 309 313 314 315 317 315 313 312 310 305 302 299 300 301
285 285 287 290 290 287 280 277 277 277 269 280 290 291 293 295 299 299 297 294 301 304 310 316 316 318 318 320 323 320 316 314 316 317 315 310 310 315
282 282 282 280 280 283 281 276 279 282 278 278 285 292 294 296 298 302 308 310 308 309 314 316 318 321 322 326 329 327 326 324 324 323 324 326 330 338
292 288 286 288 290 288 289 286 281 280 284 286 289 295 299 307 304 299 301 310 306 303 316 318 319 319 320 325 331 335 334 335 336 336 338 347 353 353
295 297 298 293 297 299 297 295 293 287 286 286 290 293 297 299 300 301 303 311 308 318 321 313 322 319 322 328 337 340 341 345 350 358 9 15 10 9
284 292 299 301 306 296 293 294 292 291 287 284 283 285 290 292 296 297 297 297 291 305 319 306 320 318 321 332 344 352 356 2 14 23 24 21 23 25
281 283 287 293 297 299 296 292 290 291 290 284 274 280 285 288 282 281 281 289 291 297 309 297 312 313 321 329 347 1 9 13 19 21 24 28 25 22
285 287 290 287 299 307 304 296 297 297 301 298 297 299 302 303 303 302 303 303 305 306 315 292 304 321 329 341 360 13 16 18 21 23 25 23 21 17
294 292 295 302 308 311 304 297 297 302 311 315 316 319 314 311 315 297 277 280 293 299 311 321 308 332 333 339 354 3 11 14 16 18 20 20 17 17
296 298 298 309 313 316 317 303 297 310 312 313 314 318 321 322 320 315 297 270 268 277 293 320 316 335 326 323 347 2 9 4 4 8 14 19 17 16
292 294 302 314 316 318 321 321 324 328 320 318 320 324 328 328 326 328 329 330 306 271 286 305 298 308 340 351 340 345 353 359 8 7 5 9 13 14
297 306 314 318 323 325 328 330 332 329 322 321 320 317 313 309 317 329 340 353 11 17 12 23 48 354 48 57 351 344 345 353 6 7 2 2 0 359
314 316 323 327 330 326 328 334 335 326 320 311 312 314 318 326 333 333 342 351 25 25 25 35 40 64 68 47 31 350 352 348 352 357 357 4 6 10
318 320 328 332 335 334 336 335 334 335 336 329 327 327 330 337 338 343 352 7 33 27 20 21 29 48 60 49 39 20 12 11 1 358 5 10 7 6
329 319 319 321 321 323 324 326 328 329 327 325 329 329 329 338 341 348 7 30 43 37 22 5 13 29 35 36 29 12 13 12 360 1 9 16 7 1
325 312 310 308 310 312 312 314 316 318 320 321 322 320 329 338 345 356 12 38 52 50 27 8 16 43 50 27 2 16 21 5 2 9 11 14 2 349
322 308 305 304 304 304 304 307 309 316 320 320 320 325 332 338 350 0 15 42 58 56 37 25 26 26 46 37 359 356 4 2 9 12 4 2 357 349
310 306 304 302 300 299 298 296 297 304 311 314 321 327 335 355 355 4 34 51 58 59 48 25 6 8 36 57 50 17 2 3 5 358 351 358 0 7
303 301 302 300 298 294 292 291 294 302 309 312 321 329 342 354 351 55 61 62 65 65 58 35 18 23 40 61 59 27 8 1 9 14 13 6 358 7
303 301 299 298 297 294 288 283 284 290 295 301 315 335 351 348 18 80 73 72 84 80 69 56 40 38 41 51 59 39 13 1 3 17 20 22 35 41